Weather History for Charlotte, NC

Change the Weather History Date:

Saturday, April 5, 2014

  Actual Average Record
Temperature  
Mean Temperature 63 °F 57 °F  
Max Temperature 73 °F 69 °F 88 °F (1942)
Min Temperature 53 °F 44 °F 26 °F (1891)
Degree Days  
Heating Degree Days 2 9  
Month to date heating degree days 6 47  
Since 1 July heating degree days 3223 3179  
Cooling Degree Days 0 1  
Month to date cooling degree days 16 4  
Year to date cooling degree days 17 9  
Growing Degree Days 13 (Base 50)    
Moisture  
Dew Point 40 °F    
Average Humidity 57    
Maximum Humidity 89    
Minimum Humidity 25    
Precipitation  
Precipitation 0.00 in 0.10 in 1.86 in (1897)
Month to date precipitation 0.00 0.54  
Year to date precipitation 11.40 11.28  
Snow  
Snow 0.00 in 0.10 in 0.00 in ()
Month to date snowfall 0.0 0.1  
Since 1 July snowfall 9.3 4.4  
Snow Depth 0.00 in    
Sea Level Pressure  
Sea Level Pressure 29.95 in    
Wind  
Wind Speed 7 mph (NNW)    
Max Wind Speed 14 mph    
Max Gust Speed 17 mph    
Visibility 10 miles    
Events      
T = Trace of Precipitation, MM = Missing Value Source: NWS Daily Summary

Daily Weather History Graph

Daily Weather History Graph

Search for Another Location

Airport:

Trip Planner

Search our weather history database for the weather conditions in past years. The results will help you decide how hot, cold, wet, or windy it might be!

Date:

Astronomy

Apr. 05, 2014 Rise Set
Actual Time 7:04 AM EDT 7:48 PM EDT
Civil Twilight 6:39 AM EDT 8:14 PM EDT
Nautical Twilight 6:09 AM EDT 8:44 PM EDT
Astronomical Twilight 5:38 AM EDT 9:15 PM EDT
Moon 11:19 AM EDT (4/5) 12:49 AM EDT (4/5)
Length of Visible Light 13h 34m
Length of Day
12h 43m
Waxing Crescent, 34% of the Moon is Illuminated
Apr 5
Waxing Crescent
Apr 7
First Quarter
Apr 15
Full
Apr 22
Last Quarter
Apr 29
New

Hourly Weather History & Observations

Time (EDT) Temp. Dew Point Humidity Pressure Visibility Wind Dir Wind Speed Gust Speed Precip Events Conditions
12:52 AM 64.9 °F 52.0 °F 63% 29.85 in 10.0 mi WSW 6.9 mph - N/A   Mostly Cloudy
1:52 AM 64.0 °F 52.0 °F 65% 29.86 in 10.0 mi WSW 6.9 mph - N/A   Mostly Cloudy
2:52 AM 61.0 °F 53.1 °F 75% 29.86 in 10.0 mi SW 8.1 mph - N/A   Mostly Cloudy
3:52 AM 60.1 °F 52.0 °F 75% 29.86 in 10.0 mi SW 4.6 mph - N/A   Partly Cloudy
4:52 AM 57.9 °F 52.0 °F 81% 29.87 in 10.0 mi West 4.6 mph - N/A   Clear
5:52 AM 55.9 °F 51.1 °F 84% 29.89 in 10.0 mi West 3.5 mph - N/A   Clear
6:52 AM 54.0 °F 50.0 °F 86% 29.91 in 10.0 mi NW 4.6 mph - N/A   Scattered Clouds
7:52 AM 55.9 °F 45.0 °F 67% 29.94 in 10.0 mi NNW 5.8 mph - N/A   Scattered Clouds
8:52 AM 59.0 °F 41.0 °F 51% 29.96 in 10.0 mi NNW 9.2 mph - N/A   Scattered Clouds
9:52 AM 61.0 °F 39.0 °F 44% 29.97 in 10.0 mi NNW 9.2 mph - N/A   Scattered Clouds
10:52 AM 63.0 °F 39.9 °F 43% 29.98 in 10.0 mi North 5.8 mph - N/A   Mostly Cloudy
11:52 AM 64.9 °F 39.0 °F 39% 29.99 in 10.0 mi North 8.1 mph - N/A   Mostly Cloudy
12:52 PM 66.0 °F 37.9 °F 36% 29.99 in 10.0 mi NW 8.1 mph - N/A   Overcast
1:52 PM 68.0 °F 37.9 °F 33% 29.98 in 10.0 mi Calm Calm - N/A   Overcast
2:52 PM 70.0 °F 37.0 °F 30% 29.96 in 10.0 mi Variable 6.9 mph - N/A   Scattered Clouds
3:52 PM 71.1 °F 35.1 °F 27% 29.96 in 10.0 mi Calm Calm - N/A   Scattered Clouds
4:52 PM 71.1 °F 34.0 °F 26% 29.94 in 10.0 mi Variable 4.6 mph - N/A   Scattered Clouds
5:52 PM 71.1 °F 33.1 °F 25% 29.94 in 10.0 mi NE 5.8 mph - N/A   Scattered Clouds
6:52 PM 66.9 °F 35.1 °F 31% 29.96 in 10.0 mi NNE 5.8 mph - N/A   Mostly Cloudy
7:52 PM 61.0 °F 33.1 °F 35% 29.98 in 10.0 mi NNE 6.9 mph - N/A   Overcast
8:52 PM 64.0 °F 30.9 °F 29% 30.00 in 10.0 mi NE 8.1 mph - N/A   Overcast
9:52 PM 62.1 °F 30.0 °F 30% 30.02 in 10.0 mi NE 10.4 mph - N/A   Overcast
10:52 PM 60.1 °F 30.0 °F 32% 30.03 in 10.0 mi NE 8.1 mph - N/A   Overcast
11:52 PM 59.0 °F 28.9 °F 32% 30.04 in 10.0 mi NE 10.4 mph - N/A   Overcast